| time (UTC) | temp F | wind direction | speed MPH | gust MPH | rain 1hr in | rain 24hr in | rain mn in | humidity % | barometer mb |
| 20260506004531 | 60 | 39 | 0.0 | 1.0 | 0.00 | 0.00 | 0.00 | 56 | 1011.2 |
| 20260506003027 | 61 | 344 | 0.0 | 1.0 | 0.00 | 0.00 | 0.00 | 61 | 1011.2 |
| 20260506001522 | 63 | 340 | 0.0 | 0.0 | 0.00 | 0.00 | 0.00 | 61 | 1011.3 |
| 20260506000017 | 63 | 1 | 0.0 | 1.0 | 0.00 | 0.00 | 0.00 | 62 | 1011.4 |
| 20260505234512 | 64 | 27 | 0.0 | 5.0 | 0.00 | 0.00 | 0.00 | 61 | 1011.5 |
| 20260505233011 | 64 | 260 | 0.0 | 3.0 | 0.00 | 0.00 | 0.00 | 61 | 1011.7 |
| 20260505231504 | 64 | 322 | 0.0 | 1.0 | 0.00 | 0.00 | 0.00 | 62 | 1011.7 |
| 20260505230122 | 64 | 149 | 0.0 | 1.0 | 0.00 | 0.00 | 0.00 | 62 | 1011.8 |
| 20260505224556 | 65 | 122 | 0.0 | 1.0 | 0.00 | 0.00 | 0.00 | 61 | 1012.0 |
| 20260505223052 | 65 | 213 | 0.0 | 1.0 | 0.00 | 0.00 | 0.00 | 62 | 1012.1 |
| 20260505221555 | 64 | 312 | 0.0 | 3.0 | 0.00 | 0.00 | 0.00 | 62 | 1012.3 |
| 20260505220052 | 64 | 148 | 0.0 | 2.0 | 0.00 | 0.00 | 0.00 | 61 | 1012.3 |
| 20260505214538 | 64 | 56 | 0.0 | 1.0 | 0.00 | 0.00 | 0.00 | 62 | 1012.5 |
| 20260505213034 | 64 | 63 | 0.0 | 6.0 | 0.00 | 0.00 | 0.00 | 60 | 1012.5 |
| 20260505211531 | 63 | 20 | 0.0 | 1.0 | 0.00 | 0.00 | 0.00 | 58 | 1012.5 |
| 20260505210023 | 61 | 354 | 0.0 | 2.0 | 0.00 | 0.00 | 0.00 | 55 | 1012.6 |
| 20260505204519 | 61 | 13 | 0.0 | 1.0 | 0.00 | 0.00 | 0.00 | 54 | 1012.6 |
| 20260505203015 | 60 | 355 | 0.0 | 1.0 | 0.00 | 0.00 | 0.00 | 49 | 1012.7 |
| 20260505201511 | 59 | 301 | 0.0 | 1.0 | 0.00 | 0.00 | 0.00 | 42 | 1012.7 |
| 20260505200014 | 58 | 229 | 0.0 | 3.0 | 0.00 | 0.00 | 0.00 | 23 | 1012.7 |
| 20260505194502 | 57 | 231 | 0.0 | 1.0 | 0.00 | 0.00 | 0.00 | 23 | 1012.6 |
| 20260505193104 | 56 | 226 | 0.0 | 2.0 | 0.00 | 0.00 | 0.00 | 14 | 1012.6 |
| 20260505191602 | 56 | 203 | 0.0 | 0.0 | 0.00 | 0.00 | 0.00 | 12 | 1012.7 |
| 20260505190048 | 56 | 198 | 0.0 | 1.0 | 0.00 | 0.00 | 0.00 | 1 | 1012.7 |
| 20260505184546 | 55 | 184 | 0.0 | 0.0 | 0.00 | 0.00 | 0.00 | 1 | 1012.6 |
| 20260505183043 | 55 | 64 | 0.0 | 0.0 | 0.00 | 0.00 | 0.00 | 1 | 1012.6 |
| 20260505181543 | 54 | 98 | 0.0 | 0.0 | 0.00 | 0.00 | 0.00 | 1 | 1012.5 |
| 20260505180032 | 54 | 160 | 0.0 | 0.0 | 0.00 | 0.00 | 0.00 | 1 | 1012.4 |
| 20260505174527 | 54 | 160 | 0.0 | 0.0 | 0.00 | 0.00 | 0.00 | 1 | 1012.3 |
| 20260505173022 | 53 | 132 | 0.0 | 0.0 | 0.00 | 0.00 | 0.00 | 1 | 1012.2 |
| 20260505171518 | 53 | 132 | 0.0 | 0.0 | 0.00 | 0.00 | 0.00 | 1 | 1012.1 |
| 20260505170014 | 53 | 194 | 0.0 | 0.0 | 0.00 | 0.00 | 0.00 | 1 | 1012.0 |
| 20260505164509 | 52 | 194 | 0.0 | 0.0 | 0.00 | 0.00 | 0.00 | 1 | 1012.1 |
| 20260505163008 | 52 | 194 | 0.0 | 0.0 | 0.00 | 0.00 | 0.00 | 1 | 1012.1 |
| 20260505161610 | 52 | 194 | 0.0 | 0.0 | 0.00 | 0.00 | 0.00 | 1 | 1012.0 |
| 20260505153047 | 52 | 194 | 0.0 | 0.0 | 0.00 | 0.00 | 0.00 | 1 | 1011.8 |
| 20260505151542 | 51 | 194 | 0.0 | 0.0 | 0.00 | 0.00 | 0.00 | 1 | 1011.5 |
| 20260505124601 | 0 | 0.0 | 0.0 | 0.00 | 0.00 | 0.00 | 1010.1 | ||
| 20260505123056 | 48 | 192 | 0.0 | 0.0 | 0.00 | 0.00 | 0.00 | 1 | 1010.1 |
| 20260505121552 | 49 | 194 | 0.0 | 0.0 | 0.00 | 0.00 | 0.00 | 1 | 1009.9 |
| 20260505120046 | 48 | 194 | 0.0 | 0.0 | 0.00 | 0.00 | 0.00 | 1 | 1009.7 |
| 20260505114541 | 48 | 194 | 0.0 | 0.0 | 0.00 | 0.00 | 0.00 | 1 | 1009.6 |
| 20260505113037 | 47 | 194 | 0.0 | 0.0 | 0.00 | 0.00 | 0.00 | 1 | 1009.4 |
| 20260505111532 | 47 | 194 | 0.0 | 0.0 | 0.00 | 0.00 | 0.00 | 1 | 1009.2 |
| 20260505101514 | 48 | 194 | 0.0 | 0.0 | 0.00 | 0.00 | 0.00 | 1 | 1008.7 |
| 20260505100016 | 48 | 194 | 0.0 | 0.0 | 0.00 | 0.00 | 0.00 | 1 | 1008.7 |
| 20260505094505 | 49 | 194 | 0.0 | 0.0 | 0.00 | 0.00 | 0.00 | 1 | 1008.7 |
| 20260505093102 | 49 | 194 | 0.0 | 0.0 | 0.00 | 0.00 | 0.00 | 1 | 1008.6 |
| 20260505091605 | 49 | 194 | 0.0 | 0.0 | 0.00 | 0.00 | 0.00 | 1 | 1008.6 |
| 20260505090058 | 49 | 194 | 0.0 | 0.0 | 0.00 | 0.00 | 0.00 | 1 | 1008.5 |
| 20260505084554 | 49 | 194 | 0.0 | 0.0 | 0.00 | 0.00 | 0.00 | 1 | 1008.5 |
| 20260505083055 | 49 | 194 | 0.0 | 0.0 | 0.00 | 0.00 | 0.00 | 1 | 1008.3 |
| 20260505081539 | 49 | 194 | 0.0 | 0.0 | 0.00 | 0.00 | 0.00 | 1 | 1008.2 |
| 20260505080043 | 49 | 194 | 0.0 | 0.0 | 0.00 | 0.00 | 0.00 | 1 | 1008.1 |
| 20260505074530 | 49 | 194 | 0.0 | 0.0 | 0.00 | 0.00 | 0.00 | 1 | 1008.0 |
| 20260505073033 | 50 | 194 | 0.0 | 0.0 | 0.00 | 0.00 | 0.00 | 1 | 1007.8 |
| 20260505071521 | 50 | 194 | 0.0 | 0.0 | 0.00 | 0.00 | 0.00 | 1 | 1007.8 |
| 20260505070017 | 50 | 194 | 0.0 | 0.0 | 0.00 | 0.00 | 0.00 | 1 | 1007.6 |
| 20260505064512 | 50 | 194 | 0.0 | 0.0 | 0.00 | 0.00 | 0.00 | 1 | 1007.5 |
| 20260505063007 | 51 | 194 | 0.0 | 0.0 | 0.00 | 0.00 | 0.00 | 1 | 1007.2 |
| 20260505061504 | 51 | 194 | 0.0 | 0.0 | 0.00 | 0.00 | 0.00 | 1 | 1007.0 |
| 20260505060059 | 51 | 194 | 0.0 | 0.0 | 0.00 | 0.00 | 0.00 | 1 | 1007.0 |
| 20260505054558 | 52 | 194 | 0.0 | 0.0 | 0.00 | 0.00 | 0.00 | 1 | 1006.7 |
| 20260505053049 | 52 | 194 | 0.0 | 0.0 | 0.00 | 0.00 | 0.00 | 1 | 1006.6 |
| 20260505051545 | 53 | 194 | 0.0 | 0.0 | 0.00 | 0.00 | 0.00 | 1 | 1006.5 |
| 20260505041528 | 55 | 193 | 0.0 | 0.0 | 0.00 | 0.00 | 0.00 | 21 | 1006.1 |
| 20260505040023 | 56 | 193 | 0.0 | 0.0 | 0.00 | 0.00 | 0.00 | 23 | 1006.0 |
| 20260505034523 | 57 | 116 | 0.0 | 0.0 | 0.00 | 0.00 | 0.00 | 34 | 1005.9 |
| 20260505033017 | 58 | 116 | 0.0 | 0.0 | 0.00 | 0.00 | 0.00 | 41 | 1005.8 |
| 20260505031512 | 59 | 116 | 0.0 | 0.0 | 0.00 | 0.00 | 0.00 | 46 | 1005.8 |
| 20260505030006 | 59 | 116 | 0.0 | 0.0 | 0.00 | 0.00 | 0.00 | 51 | 1005.8 |
| 20260505024502 | 60 | 116 | 0.0 | 0.0 | 0.00 | 0.00 | 0.00 | 52 | 1005.8 |
| 20260505023057 | 60 | 116 | 0.0 | 0.0 | 0.00 | 0.00 | 0.00 | 54 | 1005.6 |
| 20260505021555 | 61 | 50 | 0.0 | 0.0 | 0.00 | 0.00 | 0.00 | 57 | 1005.7 |
| 20260505020051 | 62 | 48 | 0.0 | 0.0 | 0.00 | 0.00 | 0.00 | 59 | 1005.7 |
| 20260505014601 | 63 | 49 | 0.0 | 0.0 | 0.00 | 0.00 | 0.00 | 60 | 1005.9 |
| 20260505013039 | 64 | 48 | 0.0 | 0.0 | 0.00 | 0.00 | 0.00 | 60 | 1005.9 |
| 20260505011541 | 66 | 49 | 0.0 | 0.0 | 0.00 | 0.00 | 0.00 | 59 | 1005.9 |
| 20260505010031 | 68 | 49 | 0.0 | 0.0 | 0.00 | 0.00 | 0.00 | 56 | 1005.8 |